Highlands Peak, California Weather observations

Data are for observation ending at time listed.
 Day   Time    Ave.   Ave.  Ave.  Vector   Max.   Stn.    Total    Solar   Ave.  
  of    of     Air    Rel.  Wind   Wind    Wind   Baro.  Precip.   Rad.    Soil  
Year   Day     Temp.  Hum.  Speed  Dir.    Gust   Pres.                    Temp. 
2026   (PST)    F      %     mph   deg.    mph     mb.     in.     W/m2     F   
------------------------------------------------------------------------------
 246   19:30   54.2   100    2.7   271      3.5   926.9    0.00       0    78.8
 246   19:40   54.4   100    2.4   271      3.2   927.1    0.00       0    78.8
 246   19:50   54.4   100    3.8   260      5.2   927.2    0.00       0    78.7
 246   20:00   54.0   100    4.0   272      5.3   927.3    0.00       0    78.6
 246   20:10   53.9   100    6.2   272      8.6   927.4    0.00       0    78.6
 246   20:20   54.1   100    7.7   267     12.4   927.4    0.00       0    78.5
 246   20:30   54.3   100    9.4   271     12.1   927.4    0.00       0    78.3
 246   20:40   54.2   100    7.6   281     10.1   927.5    0.00       0    78.2
 246   20:50   54.1   100    8.1   271     11.5   927.5    0.00       0    78.1
 246   21:00   54.4   100    9.4   272     13.4   927.5    0.00       0    78.0
 246   21:10   54.5   100    8.1   271     11.8   927.4    0.00       0    77.9
 246   21:20   54.4   100    7.3   279      9.4   927.4    0.00       0    77.8
 246   21:30   54.3   100    7.9   276     12.3   927.4    0.00       0    77.7
 246   21:40   54.6   100    6.9   282     10.4   927.3    0.00       0    77.5
 246   21:50   54.7   100    7.3   278     11.5   927.1    0.00       0    77.4
 246   22:00   54.8   100    7.7   275     11.4   927.1    0.00       0    77.3
 246   22:10   54.7   100    7.3   274      8.9   927.1    0.00       0    77.1
 246   22:20   54.6   100    7.6   270      9.6   927.1    0.00       0    77.1
 246   22:30   54.5   100    6.0   274      8.6   927.1    0.00       0    77.0
 246   22:40   54.3   100    5.3   290      6.6   927.1    0.00       0    77.0
 246   22:50   54.7   100    5.8   292      7.9   927.1    0.00       0    76.9
 246   23:00   54.8   100    5.9   274      8.1   927.1    0.00       0    76.8
 246   23:10   54.7   100    4.7   275      8.3   927.1    0.00       0    76.6
 246   23:20   54.7   100    4.9   298      7.0   927.0    0.00       0    76.5
 246   23:30   55.1   100    5.4   293      7.2   927.0    0.00       0    76.3
 246   23:40   55.2    98    4.9   297      6.4   927.1    0.00       0    76.2
 246   23:50   55.3    98    5.0   297      6.1   927.1    0.00       0    76.2
 247    0:00   55.3    97    3.7   296      4.3   927.2    0.00       0    76.1
 247    0:10   55.6    96    3.2   299      4.2   927.2    0.00       0    76.0
 247    0:20   55.9    93    2.8   307      4.4   927.1    0.00       0    75.9
 247    0:30   56.3    90    2.6   286      3.7   927.0    0.00       0    75.8
 247    0:40   55.9    92    2.5   259      3.7   926.9    0.00       0    75.5
 247    0:50   55.5    93    2.8   278      4.2   926.9    0.00       0    75.5
 247    1:00   55.0    93    1.2   282      2.2   926.8    0.00       0    75.5
 247    1:10   55.5    94    2.1   301      3.1   926.7    0.00       0    75.4
 247    1:20   56.4    91    2.6   310      3.3   926.6    0.00       0    75.2
 247    1:30   56.3    90    3.1   259      3.7   926.6    0.00       0    75.0
 247    1:40   55.3    93    2.7   227      3.9   926.6    0.00       0    74.8
 247    1:50   54.4    98    3.0   235      4.2   926.7    0.00       0    74.7
 247    2:00   54.5    99    2.1   321      3.8   926.7    0.00       0    74.7
 247    2:10   54.4   100    4.1    15      5.2   926.7    0.00       0    74.8
 247    2:20   54.7   100    2.2    13      3.6   926.7    0.00       0    74.7
 247    2:30   55.3   100    0.6   284      2.5   926.8    0.00       0    74.6
 247    2:40   55.8    99    0.8   211      2.2   926.9    0.00       0    74.5
 247    2:50   56.0    98    0.4    18      2.2   926.9    0.00       0    74.4
 247    3:00   56.0    97    2.8     5      4.0   926.9    0.00       0    74.4
 247    3:10   56.1    97    3.1   342      5.7   926.8    0.00       0    74.3
 247    3:20   56.3    97    6.2     9      6.7   926.8    0.00       0    74.4
 247    3:30   56.5    95    4.3    15      6.2   926.7    0.00       0    74.3
 247    3:40   56.9    92    2.8   356      4.7   926.7    0.00       0    74.1
 247    3:50   57.1    90    2.3     6      4.4   926.7    0.00       0    74.1
 247    4:00   57.3    90    1.2   290      3.4   926.8    0.00       0    74.1
 247    4:10   57.6    89    1.9   265      3.1   926.8    0.00       0    73.9
 247    4:20   57.1    90    3.0   234      4.8   926.9    0.00       0    73.7
 247    4:30   55.5    97    2.9   259      4.4   926.9    0.00       0    73.5
 247    4:40   54.9   100    0.3   257      1.8   926.9    0.00       0    73.6
 247    4:50   55.0   100    0.3   215      1.4   926.9    0.00       0    73.6
 247    5:00   54.6   100    0.3    81      1.3   926.9    0.00       0    73.6
 247    5:10   54.4   100    1.2   122      1.7   927.0    0.00       0    73.6
 247    5:20   54.6   100    0.4   112      1.0   927.0    0.00       0    73.5
 247    5:30   54.7   100    0.1   187      1.4   927.0    0.00       0    73.5
 247    5:40   54.8   100    0.9   172      2.1   927.2    0.00       1    73.4
 247    5:50   54.9   100    0.8   271      1.5   927.3    0.00       3    73.3
 247    6:00   54.9   100    2.0   354      3.3   927.4    0.00       7    73.3
 247    6:10   54.8   100    3.0     8      4.5   927.4    0.00       8    73.3
 247    6:20   54.9   100    3.3     8      4.4   927.4    0.00      14    73.3
 247    6:30   54.8   100    2.0    31      2.9   927.5    0.00      24    73.2
 247    6:40   54.8   100    2.4    27      3.4   927.6    0.00      44    73.2
 247    6:50   55.9   100    0.5   354      1.5   927.7    0.00     216    73.1
 247    7:00   56.4    98    1.6   225      2.5   927.8    0.00     265    72.9
 247    7:10   56.5    98    1.4   222      2.3   927.9    0.00     323    72.6
 247    7:20   56.3    99    1.6   222      3.1   927.9    0.00     122    72.5
 247    7:30   56.1   100    0.5   222      1.6   927.9    0.00      96    72.6
 247    7:40   56.6   100    0.5    40      2.2   927.9    0.00     107    72.6
 247    7:50   57.1   100    0.9   125      3.3   928.0    0.00     135    72.7
 247    8:00   56.9   100    0.9   114      3.1   928.0    0.00     138    72.7
 247    8:10   56.9   100    2.0   229      3.3   928.1    0.00     155    72.5
 247    8:20   56.6   100    1.4   199      3.7   928.2    0.00     185    72.5
 247    8:30   57.5   100    1.5   219      3.2   928.2    0.00     317    72.5
 247    8:40   57.4   100    2.4   236      4.1   928.3    0.00     215    72.3
 247    8:50   56.9   100    2.6   243      4.0   928.4    0.00     169    72.2
 247    9:00   56.5   100    3.5   231      5.3   928.4    0.00     145    72.2
 247    9:10   56.2   100    3.8   231      5.6   928.4    0.00     165    72.2
 247    9:20   56.2   100    2.2   213      3.5   928.5    0.00     170    72.2
 247    9:30   56.2   100    2.5   223      4.4   928.6    0.00     198    72.3
 247    9:40   56.4   100    2.3   220      4.7   928.6    0.00     222    72.3
 247    9:50   56.9   100    3.9   239      6.0   928.7    0.00     235    72.3
 247   10:00   56.8   100    3.6   240      5.7   928.8    0.00     248    72.3
 247   10:10   56.8   100    3.0   223      5.0   928.8    0.00     261    72.3
 247   10:20   56.8   100    2.7   231      4.4   928.8    0.00     256    72.3
 247   10:30   57.0   100    2.2   236      4.6   928.9    0.00     263    72.4
 247   10:40   57.2   100    2.1   237      3.8   929.0    0.00     278    72.4
 247   10:50   57.7   100    3.6   225      5.2   929.0    0.00     258    72.4
 247   11:00   57.0   100    2.0   230      5.0   929.0    0.00     261    72.4
 247   11:10   57.5   100    1.1   283      3.1   929.0    0.00     317    72.5
 247   11:20   58.6   100    1.2   196      3.4   929.0    0.00     365    72.6
 247   11:30   59.6    96    2.3   246      5.6   928.9    0.00     395    72.6
 247   11:40   59.1    96    3.0   254      5.1   928.8    0.00     387    72.6
 247   11:50   60.4    92    3.2   238      6.8   928.7    0.00     957    72.6
 247   12:00   61.3    89    4.0   234      7.7   928.7    0.00     802    72.7
 247   12:10   60.4    92    5.0   244      6.9   928.7    0.00     381    72.8
 247   12:20   60.2    94    3.5   244      6.2   928.8    0.00     432    72.9
 247   12:30   60.2    94    2.6   244      4.7   928.7    0.00     435    73.0
 247   12:40   61.5    88    3.2   245      5.3   928.7    0.00     497    73.1
 247   12:50   61.2    88    3.2   241      5.1   928.7    0.00     305    73.2
 247   13:00   60.9    89    2.3   232      3.8   928.7    0.00     335    73.3
 247   13:10   62.7    85    2.6   239      6.3   928.6    0.00     897    73.4
 247   13:20   64.3    78    4.2   243      6.9   928.6    0.00     772    73.5
 247   13:30   63.5    79    5.4   230      8.9   928.7    0.00     361    73.7
 247   13:40   62.6    80    3.5   224      5.6   928.7    0.00     331    73.8
 247   13:50   62.3    77    3.1   227      5.0   928.6    0.00     238    73.9
 247   14:00   62.6    78    1.4   224      3.7   928.6    0.00     277    74.0
 247   14:10   63.9    76    2.5   234      5.2   928.4    0.00     567    74.2
 247   14:20   64.0    75    3.6   227      6.8   928.4    0.00     676    74.3
 247   14:30   65.2    72    4.1   231      7.3   928.4    0.00     692    74.5
 247   14:40   64.3    76    4.3   228      8.3   928.4    0.00     826    74.7
 247   14:50   64.3    76    3.9   241      6.2   928.3    0.00     751    74.9
 247   15:00   64.8    74    4.8   238      7.7   928.2    0.00     750    75.1
 247   15:10   64.6    74    3.6   241      6.9   928.2    0.00     548    75.3
 247   15:20   63.6    77    4.7   234      8.3   928.1    0.00     390    75.5
 247   15:30   61.4    85    4.5   239      7.0   928.1    0.00     260    75.7
 247   15:40   61.7    85    3.3   259      6.2   928.0    0.00     628    75.8
 247   15:50   62.5    81    3.9   263      7.9   927.9    0.00     549    76.0
 247   16:00   63.6    74    5.7   237     10.4   927.9    0.00     629    76.2
 247   16:10   62.3    73    4.9   227      8.6   928.0    0.00     272    76.4
 247   16:20   61.0    80    3.4   234      5.3   928.1    0.00     179    76.5
 247   16:30   60.7    82    2.5   253      5.0   928.1    0.00     182    76.6
 247   16:40   61.0    82    2.0   221      4.7   928.0    0.00     198    76.7
 247   16:50   62.9    76    1.0   253      3.0   927.9    0.00     238    76.8
 247   17:00   64.5    71    2.3   230      4.8   927.9    0.00     256    77.0
 247   17:10   63.8    70    2.2   219      4.2   927.9    0.00     212    77.1
 247   17:20   64.4    69    1.7   165      4.2   927.9    0.00     184    77.2
 247   17:30   63.6    72    1.5   151      3.6   927.9    0.00     157    77.3
 247   17:40   64.3    69    1.0   152      2.3   927.9    0.00     143    77.4
 247   17:50   62.7    72    3.2   104      4.8   927.8    0.00     131    77.5
 247   18:00   61.0    73    3.9   103      4.9   927.7    0.00      90    77.6
 247   18:10   60.5    75    5.2    95      5.7   927.7    0.00      52    77.7
 247   18:20   60.8    77    5.4    97      5.8   927.7    0.00      23    77.8
 247   18:30   61.7    74    5.8   103      6.4   927.7    0.00      14    77.8
 247   18:40   61.9    72    4.3    94      5.6   927.7    0.00       3    77.9
 247   18:50   62.5    67    2.0    83      3.1   927.7    0.00       1    77.9
 247   19:00   63.2    62    1.7    79      3.3   927.7    0.00       0    77.9
 247   19:10   63.7    59    0.5   112      2.2   927.8    0.00       0    78.0
 247   19:20   63.6    60    2.0   286      4.1   927.8    0.00       0    77.9

Return to Highlands Peak graphs page.


Western Regional Climate Center,wrcc@dri.edu